ATLAS 5 CENTAUR DEB, 44647

Orbit data source: Space-Track

ATLAS 5 CENTAUR DEB, 44647 is space debris in HEO originally from a launch on Wed, 17 Oct 2018 UTC launched from the Air Force Eastern Test Range (AFETR). Debris objects in space refer to the collection of defunct objects orbiting the Earth. Examples of debris include non-operational satellites, rocket bodies, and fragments generated from explosions, collisions, or faulty payload assembly.

Loading next visibility...
Identifier
44647, 2018-079H
Orbit
HEO
Country
Flag of USUS
Related business
Flag of USUnited Launch Alliance/Lockheed Martin (US)
Manufacturer
ULA Decatur
Mission
Spacecraft
Bus & Motor
Unknown
Mass
Unknown
Launch date (UTC)
2018-10-17 (8 years ago)
Launch vehicle
Unknown
Launch site
Air Force Eastern Test Range (AFETR)
Object type
Payload
Rocket body
Debris
Shape & HBR
Unknown shape, 1.1 m
Radar Cross Section
Medium (>0.1 m² and <1 m²)

Expand to show TLE details & history
Last TLE update: 2 days ago

TLE from 2 days ago
0 ATLAS 5 CENTAUR DEB
1 44647U 18079H   26171.06733390 -.00000119  00000-0  00000+0 0  9999
2 44647  13.4678  20.4428 4628370 345.5206   4.7686  1.88055374 52639
Epoch: 2026-06-20T01:36Z
TLE epoch observation values (Epoch: 2026-06-20T01:36:57.648Z)
Latitude
0.00012°
Longitude
87.91199°
Altitude
8,692.387 km
Speed
6.207 km/s
True Right ascension
01h 21m 45s
True Declination
0° 00' 00"
Sunlit
Object was in daylight at epoch
Visualization orbit readout
Latitude
Unknown
Longitude
Unknown
Altitude
Unknown
Speed
Unknown
Apparent Right ascension
Unknown
Apparent Declination
Unknown
Sunlit
N/A
Visualization observer readout
Local Sidereal Time
21:38:47
Azimuth
Unknown
Elevation
Unknown
Doppler factor
Unknown
Orbital elements
Apogee altitude
34,182.711 km
Perigee altitude
8,516.063 km
Semi-major axis
27,727.524 km
Eccentricity
0.46284
Inclination
13.4678°
RAAN
20.4428°
Arg. of periapsis
345.5206°
True anomaly
14.55018°
Mean anomaly
4.7686°
Eccentric anomaly
8.84712°
Mean motion
0.47009 °/min
Orbital period
765.82 mins
BSTAR
0
Loading maneuver chart data...
Computing Atmospheric mass density...

Documentation

Showing up to 5 results
|